Lid_Strength_Index
12 11 11 11 12 13 15 14 16 15 15 12 10 9 8 7 8 10 9 9 9 10 9 10 10 10 9 9 8 7 7 6 5 3 2 2 3 4 3 5 5 5 2 3
14 11 11 12 11 11 12 11 12 12 12 8 7 6 7 7 8 11 9 10 10 9 9 10 9 9 9 8 8 7 7 7 6 4 3 3 3 4 4 4 6 7 7 4
15 12 12 15 12 11 10 9 9 11 9 7 7 7 6 6 8 9 10 9 9 9 9 10 9 8 8 8 7 6 6 5 5 5 4 3 3 4 5 5 6 7 8 7
14 12 18 11 9 9 10 9 8 8 8 7 7 6 6 5 6 8 8 8 7 7 7 6 7 7 7 7 8 7 6 6 5 5 4 3 4 4 4 5 6 6 7 7
15 14 12 10 9 9 11 11 8 8 7 7 6 6 6 4 6 6 6 5 5 5 5 5 6 5 5 6 6 6 7 6 5 5 4 4 4 4 4 5 6 7 9 9
13 16 17 11 8 6 7 12 7 6 7 7 6 9 7 4 4 4 4 4 4 5 4 5 5 4 4 5 5 5 5 5 4 3 3 4 5 7 6 7 9 10 12 12
14 15 12 9 7 6 13 12 6 6 6 6 7 6 4 3 4 3 4 4 4 4 4 4 4 4 4 5 5 4 3 4 3 2 3 3 5 9 9 10 11 12 13 13
13 15 17 7 7 10 8 6 5 5 5 5 5 4 4 4 3 3 3 3 3 4 4 4 3 4 4 5 3 4 3 4 3 2 3 6 8 10 11 11 12 12 13 13
13 14 7 6 6 5 5 5 5 5 4 4 4 5 4 4 3 3 3 3 2 2 3 3 3 3 4 3 3 3 4 3 2 3 7 9 10 11 11 11 11 12 12 12
9 8 7 6 5 4 4 4 4 4 4 4 4 4 4 4 4 3 3 3 2 2 3 3 2 2 3 2 2 3 3 3 5 8 10 10 10 9 10 10 11 11 12 12
9 7 6 5 5 4 4 4 4 3 3 4 4 4 4 4 4 3 3 3 2 3 3 3 2 2 1 2 2 3 4 4 6 8 9 9 10 10 11 12 10 11 11 12
10 7 6 6 4 3 4 4 4 4 4 3 3 4 5 5 4 4 4 3 3 3 4 4 4 4 3 2 2 2 3 6 7 8 9 10 10 11 11 12 11 12 12 12
6 4 4 4 4 3 4 4 4 4 4 5 4 4 5 5 4 4 4 4 5 6 6 7 8 8 7 6 5 5 4 5 7 8 9 10 11 12 13 13 12 12 12 12
4 4 5 5 5 4 4 4 4 4 4 4 4 4 5 5 4 5 5 6 8 9 9 10 10 10 9 10 9 8 6 7 7 8 9 10 11 12 12 12 13 13 12 12
4 4 4 4 4 4 4 4 5 5 5 6 5 5 4 5 6 6 7 7 9 9 10 10 10 10 10 9 8 8 8 8 9 10 11 11 12 12 12 12 13 13 13 13
4 4 4 4 4 5 5 6 6 7 6 5 5 5 5 6 7 7 7 8 9 11 11 10 10 11 10 10 10 10 10 10 10 11 11 11 11 12 12 12 12 12 12 12
6 6 5 5 5 5 6 6 6 6 6 5 5 5 6 7 7 8 8 9 9 10 11 11 11 10 10 10 11 10 11 11 11 10 10 10 10 10 10 11 12 12 12 10
4 4 4 4 5 5 6 6 6 6 6 6 6 6 7 8 8 8 9 9 9 9 10 10 10 10 11 10 10 10 10 10 10 10 9 10 9 9 10 10 11 11 10 9
4 4 4 4 4 5 6 6 6 6 6 7 7 8 7 8 8 8 9 9 10 10 10 9 10 9 9 10 8 8 8 9 9 9 9 10 9 9 9 9 9 9 9 9
4 4 4 4 4 5 6 6 7 7 7 7 7 7 7 8 8 9 8 9 9 9 9 9 8 8 8 8 9 8 8 9 9 9 9 9 9 9 7 8 8 9 9 9
5 4 5 6 7 6 6 6 7 7 7 7 8 8 7 7 8 9 9 10 9 9 9 9 9 8 8 8 8 8 8 9 9 9 9 9 9 8 8 9 9 9 8 8
5 5 6 6 6 6 6 5 6 6 7 7 7 7 7 6 7 8 9 9 8 9 9 9 9 9 8 9 7 7 8 8 8 9 9 9 9 9 9 8 8 8 8 8
5 5 5 5 6 5 5 5 6 6 7 6 7 7 7 6 6 7 8 8 8 9 8 9 10 10 9 8 9 9 8 8 8 8 8 8 8 8 8 8 8 9 9 9
4 4 5 4 4 5 5 5 5 5 6 6 5 5 6 5 5 5 6 8 9 9 9 9 9 10 9 9 9 8 9 9 8 8 8 8 8 8 9 9 8 8 8 8
6 5 5 5 5 5 5 4 5 5 5 6 5 5 4 4 5 5 6 7 9 8 8 9 9 9 9 8 8 8 8 8 8 8 8 8 8 8 8 8 9 9 9 9
7 6 6 6 5 4 3 3 5 5 5 6 6 5 4 4 5 5 6 7 6 8 7 8 8 8 8 8 8 7 7 7 7 7 8 8 8 9 10 10 10 10 10 9
7 7 7 7 6 4 4 3 4 4 5 5 7 6 6 5 5 6 6 6 6 6 6 7 8 8 8 8 8 8 8 8 8 9 9 9 9 10 10 10 10 10 10 10